Time,TemperatureF,DewpointF,PressureIn,WindDirection,WindDirectionDegrees,WindSpeedMPH,WindSpeedGustMPH,Humidity,HourlyPrecipIn,Conditions,Clouds,dailyrainin,SoftwareType,DateUTC
2012-04-02 00:03:00,66.0,65.4,29.65,NNE,30,0.0,0.0,98,0.00,,,0.00,VWS V13.01,2012-04-02 05:03:00,
2012-04-02 00:08:00,66.0,66.0,29.65,NNE,30,0.0,0.0,100,0.00,,,0.00,VWS V13.01,2012-04-02 05:08:00,
2012-04-02 00:13:00,65.8,65.8,29.65,NNE,20,0.0,0.0,100,0.00,,,0.00,VWS V13.01,2012-04-02 05:13:00,
2012-04-02 00:18:00,65.7,65.7,29.65,NE,37,2.7,2.7,100,0.00,,,0.00,VWS V13.01,2012-04-02 05:18:00,
2012-04-02 00:23:00,65.7,65.7,29.65,NE,36,0.0,0.0,100,0.00,,,0.00,VWS V13.01,2012-04-02 05:23:00,
2012-04-02 00:28:00,65.5,65.5,29.65,NE,37,0.0,0.0,100,0.00,,,0.00,VWS V13.01,2012-04-02 05:28:00,
2012-04-02 00:33:00,65.3,65.3,29.65,NE,37,0.0,0.0,100,0.00,,,0.00,VWS V13.01,2012-04-02 05:33:00,
2012-04-02 00:38:00,65.1,65.1,29.65,NE,37,0.0,0.0,100,0.00,,,0.00,VWS V13.01,2012-04-02 05:38:00,
2012-04-02 00:43:00,65.1,65.1,29.65,NE,36,0.0,0.0,100,0.00,,,0.00,VWS V13.01,2012-04-02 05:43:00,
2012-04-02 00:48:00,64.9,64.9,29.68,NNE,21,0.0,0.0,100,0.00,,,0.00,VWS V13.01,2012-04-02 05:48:00,
2012-04-02 00:53:00,64.8,64.8,29.68,North,10,0.0,0.0,100,0.00,,,0.00,VWS V13.01,2012-04-02 05:53:00,
2012-04-02 00:58:00,64.8,64.8,29.68,NNE,30,0.0,0.0,100,0.00,,,0.00,VWS V13.01,2012-04-02 05:58:00,
2012-04-02 01:03:00,64.6,64.6,29.68,NNE,30,0.0,0.0,100,0.00,,,0.00,VWS V13.01,2012-04-02 06:03:00,
2012-04-02 01:08:00,64.6,64.6,29.68,NE,48,2.7,3.1,100,0.00,,,0.00,VWS V13.01,2012-04-02 06:08:00,
2012-04-02 01:13:00,64.2,64.2,29.68,NE,35,3.1,3.1,100,0.00,,,0.00,VWS V13.01,2012-04-02 06:13:00,
2012-04-02 01:18:00,64.0,64.0,29.68,NE,35,0.0,0.0,100,0.00,,,0.00,VWS V13.01,2012-04-02 06:18:00,
2012-04-02 01:23:00,64.0,64.0,29.68,NNE,24,0.0,0.0,100,0.00,,,0.00,VWS V13.01,2012-04-02 06:23:00,
2012-04-02 01:28:00,64.0,64.0,29.68,NE,34,0.0,2.7,100,0.00,,,0.00,VWS V13.01,2012-04-02 06:28:00,
2012-04-02 01:33:00,63.9,63.9,29.68,NE,34,0.0,0.0,100,0.00,,,0.00,VWS V13.01,2012-04-02 06:33:00,
2012-04-02 01:38:00,63.9,63.9,29.68,North,1,0.0,0.0,100,0.00,,,0.00,VWS V13.01,2012-04-02 06:38:00,
2012-04-02 01:43:00,63.7,63.7,29.68,NE,37,0.0,0.0,100,0.00,,,0.00,VWS V13.01,2012-04-02 06:43:00,
2012-04-02 01:49:00,63.7,63.7,29.65,NNE,25,0.0,0.0,100,0.00,,,0.00,VWS V13.01,2012-04-02 06:49:00,
2012-04-02 01:54:00,63.5,63.5,29.65,NE,42,0.0,0.0,100,0.00,,,0.00,VWS V13.01,2012-04-02 06:54:00,
2012-04-02 01:58:00,63.7,63.7,29.65,NE,39,0.0,0.0,100,0.00,,,0.00,VWS V13.01,2012-04-02 06:58:00,
2012-04-02 02:03:00,63.5,63.5,29.65,NE,40,0.0,0.0,100,0.00,,,0.00,VWS V13.01,2012-04-02 07:03:00,
2012-04-02 02:08:00,63.7,63.7,29.65,NE,39,0.0,0.0,100,0.00,,,0.00,VWS V13.01,2012-04-02 07:08:00,
2012-04-02 02:13:00,63.5,63.5,29.65,NE,39,0.0,0.0,100,0.00,,,0.00,VWS V13.01,2012-04-02 07:13:00,
2012-04-02 02:18:00,63.5,63.5,29.65,NE,40,0.0,0.0,100,0.00,,,0.00,VWS V13.01,2012-04-02 07:18:00,
2012-04-02 02:23:00,63.5,63.5,29.65,NE,40,0.0,0.0,100,0.00,,,0.00,VWS V13.01,2012-04-02 07:23:00,
2012-04-02 02:28:00,63.5,63.5,29.65,NE,40,0.0,0.0,100,0.00,,,0.00,VWS V13.01,2012-04-02 07:28:00,
2012-04-02 02:33:00,63.5,63.5,29.65,NE,40,0.0,0.0,100,0.00,,,0.00,VWS V13.01,2012-04-02 07:33:00,
2012-04-02 02:38:00,63.3,63.3,29.65,NE,40,0.0,0.0,100,0.00,,,0.00,VWS V13.01,2012-04-02 07:38:00,
2012-04-02 02:43:00,63.1,63.1,29.65,NNE,26,0.0,0.0,100,0.00,,,0.00,VWS V13.01,2012-04-02 07:43:00,
2012-04-02 02:48:00,63.0,63.0,29.65,NNE,26,0.0,0.0,100,0.00,,,0.00,VWS V13.01,2012-04-02 07:48:00,
2012-04-02 02:53:00,62.8,62.8,29.65,NE,35,2.7,2.7,100,0.00,,,0.00,VWS V13.01,2012-04-02 07:53:00,
2012-04-02 02:58:00,62.8,62.8,29.65,North,11,0.0,0.0,100,0.00,,,0.00,VWS V13.01,2012-04-02 07:58:00,
2012-04-02 03:03:00,62.6,62.6,29.65,North,11,0.0,0.0,100,0.00,,,0.00,VWS V13.01,2012-04-02 08:03:00,
2012-04-02 03:08:00,62.6,62.6,29.65,North,11,0.0,0.0,100,0.00,,,0.00,VWS V13.01,2012-04-02 08:08:00,
2012-04-02 03:13:00,62.4,62.4,29.65,North,10,0.0,0.0,100,0.00,,,0.00,VWS V13.01,2012-04-02 08:13:00,
2012-04-02 03:18:00,62.4,62.4,29.65,NNE,20,2.7,3.6,100,0.00,,,0.00,VWS V13.01,2012-04-02 08:18:00,
2012-04-02 03:23:00,62.4,62.4,29.65,NNE,24,0.0,0.0,100,0.00,,,0.00,VWS V13.01,2012-04-02 08:23:00,
2012-04-02 03:28:00,62.4,62.4,29.65,NNE,24,0.0,0.0,100,0.00,,,0.00,VWS V13.01,2012-04-02 08:28:00,
2012-04-02 03:33:00,62.4,62.4,29.65,NNE,24,0.0,0.0,100,0.00,,,0.00,VWS V13.01,2012-04-02 08:33:00,
2012-04-02 03:38:00,62.4,62.4,29.65,NNE,24,0.0,0.0,100,0.00,,,0.00,VWS V13.01,2012-04-02 08:38:00,
2012-04-02 03:43:00,62.4,62.4,29.65,NNE,24,0.0,0.0,100,0.00,,,0.00,VWS V13.01,2012-04-02 08:43:00,
2012-04-02 03:48:00,62.2,62.2,29.65,North,2,0.0,0.0,100,0.00,,,0.00,VWS V13.01,2012-04-02 08:48:00,
2012-04-02 03:53:00,62.4,62.4,29.65,North,1,0.0,0.0,100,0.00,,,0.00,VWS V13.01,2012-04-02 08:53:00,
2012-04-02 03:58:00,62.2,62.2,29.65,North,1,0.0,0.0,100,0.00,,,0.00,VWS V13.01,2012-04-02 08:58:00,
2012-04-02 04:03:00,62.2,62.2,29.65,North,2,0.0,0.0,100,0.00,,,0.00,VWS V13.01,2012-04-02 09:03:00,
2012-04-02 04:08:00,62.2,62.2,29.65,North,2,0.0,0.0,100,0.00,,,0.00,VWS V13.01,2012-04-02 09:08:00,
2012-04-02 04:13:00,61.9,61.9,29.65,North,1,0.0,0.0,100,0.00,,,0.00,VWS V13.01,2012-04-02 09:13:00,
2012-04-02 04:18:00,61.9,61.9,29.68,NNE,16,0.0,0.0,100,0.00,,,0.00,VWS V13.01,2012-04-02 09:18:00,
2012-04-02 04:23:00,61.7,61.7,29.68,NNE,17,0.0,0.0,100,0.00,,,0.00,VWS V13.01,2012-04-02 09:23:00,
2012-04-02 04:28:00,61.7,61.7,29.68,NE,34,0.0,0.0,100,0.00,,,0.00,VWS V13.01,2012-04-02 09:28:00,
2012-04-02 04:33:00,61.3,61.3,29.68,NE,48,2.7,3.6,100,0.00,,,0.00,VWS V13.01,2012-04-02 09:33:00,
2012-04-02 04:38:00,61.0,61.0,29.68,ENE,60,0.0,0.0,100,0.00,,,0.00,VWS V13.01,2012-04-02 09:38:00,
2012-04-02 04:43:00,61.2,61.2,29.68,NNE,29,0.0,0.0,100,0.00,,,0.00,VWS V13.01,2012-04-02 09:43:00,
2012-04-02 04:48:00,61.2,61.2,29.68,NNE,29,0.0,0.0,100,0.00,,,0.00,VWS V13.01,2012-04-02 09:48:00,
2012-04-02 04:54:00,61.2,61.2,29.68,NNE,29,0.0,0.0,100,0.00,,,0.00,VWS V13.01,2012-04-02 09:54:00,
2012-04-02 04:59:00,61.2,61.2,29.68,NNE,30,0.0,0.0,100,0.00,,,0.00,VWS V13.01,2012-04-02 09:59:00,
2012-04-02 05:04:00,61.0,61.0,29.68,NNE,30,0.0,0.0,100,0.00,,,0.00,VWS V13.01,2012-04-02 10:04:00,
2012-04-02 05:09:00,61.0,61.0,29.68,NNE,29,0.0,0.0,100,0.00,,,0.00,VWS V13.01,2012-04-02 10:09:00,
2012-04-02 05:14:00,61.0,61.0,29.68,NNE,30,0.0,0.0,100,0.00,,,0.00,VWS V13.01,2012-04-02 10:14:00,
2012-04-02 05:19:00,61.0,61.0,29.68,NNE,29,0.0,0.0,100,0.00,,,0.00,VWS V13.01,2012-04-02 10:19:00,
2012-04-02 05:24:00,60.8,60.8,29.68,NNE,30,0.0,0.0,100,0.00,,,0.00,VWS V13.01,2012-04-02 10:24:00,
2012-04-02 05:29:00,60.8,60.8,29.68,SSE,163,4.0,4.9,100,0.00,,,0.00,VWS V13.01,2012-04-02 10:29:00,
2012-04-02 05:34:00,60.8,60.8,29.68,NNE,29,0.0,0.0,100,0.00,,,0.00,VWS V13.01,2012-04-02 10:34:00,
2012-04-02 05:39:00,61.0,61.0,29.68,NNE,24,0.0,0.0,100,0.00,,,0.00,VWS V13.01,2012-04-02 10:39:00,
2012-04-02 05:44:00,60.8,60.8,29.68,NNE,20,0.0,0.0,100,0.00,,,0.00,VWS V13.01,2012-04-02 10:44:00,
2012-04-02 05:49:00,61.2,61.2,29.68,South,173,0.0,0.0,100,0.00,,,0.00,VWS V13.01,2012-04-02 10:49:00,
2012-04-02 05:54:00,61.0,61.0,29.68,South,173,0.0,0.0,100,0.00,,,0.00,VWS V13.01,2012-04-02 10:54:00,
2012-04-02 05:59:00,60.8,60.8,29.68,NNE,26,0.0,0.0,100,0.00,,,0.00,VWS V13.01,2012-04-02 10:59:00,
2012-04-02 06:04:00,60.6,60.6,29.68,NNE,26,0.0,0.0,100,0.00,,,0.00,VWS V13.01,2012-04-02 11:04:00,
2012-04-02 06:09:00,60.6,60.6,29.68,NNE,26,0.0,0.0,100,0.00,,,0.00,VWS V13.01,2012-04-02 11:09:00,
2012-04-02 06:14:00,60.6,60.6,29.71,WSW,239,0.0,0.0,100,0.00,,,0.00,VWS V13.01,2012-04-02 11:14:00,
2012-04-02 06:19:00,60.6,60.6,29.71,North,10,0.0,3.6,100,0.00,,,0.00,VWS V13.01,2012-04-02 11:19:00,
2012-04-02 06:24:00,60.8,60.8,29.71,SE,130,0.0,3.1,100,0.00,,,0.00,VWS V13.01,2012-04-02 11:24:00,
2012-04-02 06:29:00,60.8,60.8,29.71,SE,130,0.0,0.0,100,0.00,,,0.00,VWS V13.01,2012-04-02 11:29:00,
2012-04-02 06:34:00,60.8,60.8,29.71,NNE,33,2.7,3.6,100,0.00,,,0.00,VWS V13.01,2012-04-02 11:34:00,
2012-04-02 06:39:00,60.6,60.6,29.71,ENE,58,0.0,0.0,100,0.00,,,0.00,VWS V13.01,2012-04-02 11:39:00,
2012-04-02 06:44:00,60.4,60.4,29.71,ENE,58,0.0,0.0,100,0.00,,,0.00,VWS V13.01,2012-04-02 11:44:00,
2012-04-02 06:49:00,60.3,60.3,29.71,NE,50,0.0,0.0,100,0.00,,,0.00,VWS V13.01,2012-04-02 11:49:00,
2012-04-02 06:54:00,60.4,60.4,29.71,NE,41,2.7,2.7,100,0.00,,,0.00,VWS V13.01,2012-04-02 11:54:00,
2012-04-02 06:59:00,60.6,60.6,29.71,NE,47,0.0,3.1,100,0.00,,,0.00,VWS V13.01,2012-04-02 11:59:00,
2012-04-02 07:04:00,60.6,60.6,29.71,NE,47,0.0,0.0,100,0.00,,,0.00,VWS V13.01,2012-04-02 12:04:00,
2012-04-02 07:09:00,60.6,60.6,29.71,NE,47,0.0,0.0,100,0.00,,,0.00,VWS V13.01,2012-04-02 12:09:00,
2012-04-02 07:14:00,60.4,60.4,29.71,NE,47,0.0,0.0,100,0.00,,,0.00,VWS V13.01,2012-04-02 12:14:00,
2012-04-02 07:19:00,60.1,60.1,29.71,NE,47,0.0,0.0,100,0.00,,,0.00,VWS V13.01,2012-04-02 12:19:00,
2012-04-02 07:24:00,60.1,60.1,29.71,NE,47,0.0,0.0,100,0.00,,,0.00,VWS V13.01,2012-04-02 12:24:00,
2012-04-02 07:29:00,60.1,60.1,29.71,NE,47,0.0,0.0,100,0.00,,,0.00,VWS V13.01,2012-04-02 12:29:00,
2012-04-02 07:34:00,60.3,60.3,29.71,NE,47,0.0,0.0,100,0.00,,,0.00,VWS V13.01,2012-04-02 12:34:00,
2012-04-02 07:39:00,60.3,60.3,29.71,WSW,246,0.0,3.1,100,0.00,,,0.00,VWS V13.01,2012-04-02 12:39:00,
2012-04-02 07:44:00,60.6,60.6,29.74,ENE,58,2.2,2.7,100,0.00,,,0.00,VWS V13.01,2012-04-02 12:44:00,
2012-04-02 07:49:00,61.0,61.0,29.74,ENE,58,0.0,0.0,100,0.00,,,0.00,VWS V13.01,2012-04-02 12:49:00,
2012-04-02 07:54:00,61.0,61.0,29.74,ENE,58,0.0,0.0,100,0.00,,,0.00,VWS V13.01,2012-04-02 12:54:00,
2012-04-02 07:59:00,61.3,61.3,29.74,ESE,106,0.0,0.0,100,0.00,,,0.00,VWS V13.01,2012-04-02 12:59:00,
2012-04-02 08:04:00,61.5,61.5,29.74,ESE,106,0.0,0.0,100,0.00,,,0.00,VWS V13.01,2012-04-02 13:04:00,
2012-04-02 08:09:00,62.1,62.1,29.74,NW,318,0.0,0.0,100,0.00,,,0.00,VWS V13.01,2012-04-02 13:09:00,
2012-04-02 08:14:00,62.8,62.8,29.74,NNW,333,0.0,0.0,100,0.00,,,0.00,VWS V13.01,2012-04-02 13:14:00,
2012-04-02 08:19:00,63.5,63.5,29.74,NNE,30,0.0,0.0,100,0.00,,,0.00,VWS V13.01,2012-04-02 13:19:00,
2012-04-02 08:24:00,64.0,64.0,29.74,NW,313,2.2,3.1,100,0.00,,,0.00,VWS V13.01,2012-04-02 13:24:00,
2012-04-02 08:29:00,64.4,64.4,29.74,South,184,2.2,4.0,100,0.00,,,0.00,VWS V13.01,2012-04-02 13:29:00,
2012-04-02 08:34:00,65.3,65.3,29.74,West,262,0.0,0.0,100,0.00,,,0.00,VWS V13.01,2012-04-02 13:34:00,
2012-04-02 08:39:00,65.7,65.7,29.74,WNW,285,0.0,2.7,100,0.00,,,0.00,VWS V13.01,2012-04-02 13:39:00,
2012-04-02 08:44:00,66.4,66.4,29.74,ESE,118,3.1,3.1,100,0.00,,,0.00,VWS V13.01,2012-04-02 13:44:00,
2012-04-02 08:49:00,66.9,66.9,29.74,NNW,334,0.0,0.0,100,0.00,,,0.00,VWS V13.01,2012-04-02 13:49:00,
2012-04-02 08:54:00,67.8,66.3,29.74,NE,34,0.0,0.0,95,0.00,,,0.00,VWS V13.01,2012-04-02 13:54:00,
2012-04-02 08:59:00,69.1,65.7,29.77,NNE,33,2.7,2.7,89,0.00,,,0.00,VWS V13.01,2012-04-02 13:59:00,
2012-04-02 09:04:00,69.8,66.7,29.77,NNE,33,0.0,0.0,90,0.00,,,0.00,VWS V13.01,2012-04-02 14:04:00,
2012-04-02 09:09:00,70.3,64.9,29.77,East,84,0.0,0.0,83,0.00,,,0.00,VWS V13.01,2012-04-02 14:09:00,
2012-04-02 09:14:00,70.7,65.3,29.77,NNE,25,0.0,0.0,83,0.00,,,0.00,VWS V13.01,2012-04-02 14:14:00,
2012-04-02 09:19:00,71.6,65.1,29.77,NE,49,2.7,2.7,80,0.00,,,0.00,VWS V13.01,2012-04-02 14:19:00,
2012-04-02 09:24:00,72.3,64.0,29.77,NE,41,3.1,3.6,75,0.00,,,0.00,VWS V13.01,2012-04-02 14:24:00,
2012-04-02 09:29:00,72.7,63.9,29.77,SSE,164,3.1,3.1,74,0.00,,,0.00,VWS V13.01,2012-04-02 14:29:00,
2012-04-02 09:34:00,72.9,61.3,29.77,SSW,209,2.2,3.6,67,0.00,,,0.00,VWS V13.01,2012-04-02 14:34:00,
2012-04-02 09:39:00,72.9,61.7,29.77,South,178,4.0,4.0,68,0.00,,,0.00,VWS V13.01,2012-04-02 14:39:00,
2012-04-02 09:44:00,72.7,61.5,29.77,South,188,4.9,4.9,68,0.00,,,0.00,VWS V13.01,2012-04-02 14:44:00,
2012-04-02 09:49:00,72.5,60.1,29.77,South,188,6.7,6.7,65,0.00,,,0.00,VWS V13.01,2012-04-02 14:49:00,
2012-04-02 09:54:00,72.3,61.2,29.77,SW,225,3.6,4.9,68,0.00,,,0.00,VWS V13.01,2012-04-02 14:54:00,
2012-04-02 09:59:00,72.3,59.9,29.77,SSW,196,8.7,11.4,65,0.00,,,0.00,VWS V13.01,2012-04-02 14:59:00,
2012-04-02 10:04:00,72.1,61.0,29.77,SW,219,4.0,4.0,68,0.00,,,0.00,VWS V13.01,2012-04-02 15:04:00,
2012-04-02 10:09:00,72.5,61.3,29.77,SSW,202,0.0,0.0,68,0.00,,,0.00,VWS V13.01,2012-04-02 15:09:00,
2012-04-02 10:14:00,73.2,60.3,29.77,SSW,199,4.0,4.0,64,0.00,,,0.00,VWS V13.01,2012-04-02 15:14:00,
2012-04-02 10:19:00,73.6,59.8,29.77,SSW,199,5.4,6.3,62,0.00,,,0.00,VWS V13.01,2012-04-02 15:19:00,
2012-04-02 10:24:00,73.9,61.9,29.77,SSW,207,3.6,3.6,66,0.00,,,0.00,VWS V13.01,2012-04-02 15:24:00,
2012-04-02 10:29:00,73.8,59.0,29.77,SW,232,7.2,7.2,60,0.00,,,0.00,VWS V13.01,2012-04-02 15:29:00,
2012-04-02 10:34:00,73.4,59.2,29.77,South,184,3.6,6.3,61,0.00,,,0.00,VWS V13.01,2012-04-02 15:34:00,
2012-04-02 10:39:00,73.4,58.7,29.77,WSW,253,4.0,8.7,60,0.00,,,0.00,VWS V13.01,2012-04-02 15:39:00,
2012-04-02 10:44:00,73.4,58.7,29.77,SSE,163,6.3,6.3,60,0.00,,,0.00,VWS V13.01,2012-04-02 15:44:00,
2012-04-02 10:49:00,73.4,58.7,29.77,South,180,6.7,6.7,60,0.00,,,0.00,VWS V13.01,2012-04-02 15:49:00,
2012-04-02 10:54:00,73.8,59.0,29.77,SSE,147,3.6,5.8,60,0.00,,,0.00,VWS V13.01,2012-04-02 15:54:00,
2012-04-02 11:00:00,74.1,59.8,29.77,SSE,147,2.7,3.6,61,0.00,,,0.00,VWS V13.01,2012-04-02 16:00:00,
2012-04-02 11:05:00,75.0,59.7,29.77,ESE,102,6.3,6.3,59,0.00,,,0.00,VWS V13.01,2012-04-02 16:05:00,
2012-04-02 11:10:00,75.9,60.1,29.77,SSE,157,3.6,3.6,58,0.00,,,0.00,VWS V13.01,2012-04-02 16:10:00,
2012-04-02 11:15:00,76.5,59.6,29.77,SE,124,4.0,5.4,56,0.00,,,0.00,VWS V13.01,2012-04-02 16:15:00,
2012-04-02 11:20:00,76.8,60.9,29.77,SE,127,3.6,3.6,58,0.00,,,0.00,VWS V13.01,2012-04-02 16:20:00,
2012-04-02 11:25:00,77.2,59.8,29.77,SSE,167,5.8,6.3,55,0.00,,,0.00,VWS V13.01,2012-04-02 16:25:00,
2012-04-02 11:30:00,76.8,60.5,29.77,South,185,5.4,6.3,57,0.00,,,0.00,VWS V13.01,2012-04-02 16:30:00,
2012-04-02 11:35:00,76.5,60.6,29.77,South,173,4.0,4.0,58,0.00,,,0.00,VWS V13.01,2012-04-02 16:35:00,
2012-04-02 11:41:00,76.3,60.0,29.77,SSE,167,2.7,3.6,57,0.00,,,0.00,VWS V13.01,2012-04-02 16:41:00,
2012-04-02 11:46:00,76.5,59.1,29.74,SSE,150,0.0,5.4,55,0.00,,,0.00,VWS V13.01,2012-04-02 16:46:00,
2012-04-02 11:51:00,76.6,60.3,29.74,East,84,4.0,5.4,57,0.00,,,0.00,VWS V13.01,2012-04-02 16:51:00,
2012-04-02 11:56:00,77.2,59.3,29.74,East,90,4.0,4.0,54,0.00,,,0.00,VWS V13.01,2012-04-02 16:56:00,
2012-04-02 12:01:00,77.4,59.4,29.77,West,270,3.1,3.1,54,0.00,,,0.00,VWS V13.01,2012-04-02 17:01:00,
2012-04-02 12:06:00,77.7,60.8,29.77,SW,223,4.0,4.0,56,0.00,,,0.00,VWS V13.01,2012-04-02 17:06:00,
2012-04-02 12:11:00,78.1,59.6,29.77,SE,138,0.0,2.2,53,0.00,,,0.00,VWS V13.01,2012-04-02 17:11:00,
2012-04-02 12:16:00,78.6,60.1,29.74,ESE,117,0.0,4.0,53,0.00,,,0.00,VWS V13.01,2012-04-02 17:16:00,
2012-04-02 12:21:00,79.7,59.4,29.74,NE,37,3.1,4.0,50,0.00,,,0.00,VWS V13.01,2012-04-02 17:21:00,
2012-04-02 12:26:00,80.2,59.4,29.74,ENE,60,5.8,5.8,49,0.00,,,0.00,VWS V13.01,2012-04-02 17:26:00,
2012-04-02 12:32:00,80.1,59.2,29.74,SSE,162,2.7,2.7,49,0.00,,,0.00,VWS V13.01,2012-04-02 17:32:00,
2012-04-02 12:37:00,79.9,59.0,29.74,East,81,3.1,4.9,49,0.00,,,0.00,VWS V13.01,2012-04-02 17:37:00,
2012-04-02 12:42:00,79.9,60.2,29.74,SE,143,3.6,4.0,51,0.00,,,0.00,VWS V13.01,2012-04-02 17:42:00,
2012-04-02 12:47:00,80.4,60.1,29.74,SSE,157,3.6,5.8,50,0.00,,,0.00,VWS V13.01,2012-04-02 17:47:00,
2012-04-02 12:52:00,80.4,60.1,29.74,ESE,119,5.4,5.8,50,0.00,,,0.00,VWS V13.01,2012-04-02 17:52:00,
2012-04-02 12:57:00,80.1,58.6,29.74,ESE,104,4.5,4.5,48,0.00,,,0.00,VWS V13.01,2012-04-02 17:57:00,
2012-04-02 13:02:00,80.2,60.5,29.74,ENE,66,5.4,6.3,51,0.00,,,0.00,VWS V13.01,2012-04-02 18:02:00,
2012-04-02 13:07:00,81.0,59.4,29.74,North,358,4.0,5.4,48,0.00,,,0.00,VWS V13.01,2012-04-02 18:07:00,
2012-04-02 13:12:00,81.0,58.9,29.74,ENE,66,7.6,7.6,47,0.00,,,0.00,VWS V13.01,2012-04-02 18:12:00,
2012-04-02 13:17:00,80.4,59.0,29.74,East,82,5.4,6.3,48,0.00,,,0.00,VWS V13.01,2012-04-02 18:17:00,
2012-04-02 13:22:00,81.1,59.0,29.74,NNE,33,5.4,5.4,47,0.00,,,0.00,VWS V13.01,2012-04-02 18:22:00,
2012-04-02 13:27:00,81.9,59.7,29.74,North,3,4.0,4.9,47,0.00,,,0.00,VWS V13.01,2012-04-02 18:27:00,
2012-04-02 13:32:00,82.0,59.2,29.74,SE,132,3.6,3.6,46,0.00,,,0.00,VWS V13.01,2012-04-02 18:32:00,
2012-04-02 13:37:00,81.9,59.1,29.74,East,100,3.6,5.4,46,0.00,,,0.00,VWS V13.01,2012-04-02 18:37:00,
2012-04-02 13:43:00,82.6,59.7,29.74,North,10,7.6,7.6,46,0.00,,,0.00,VWS V13.01,2012-04-02 18:43:00,
2012-04-02 13:48:00,82.9,60.0,29.71,NE,48,3.6,3.6,46,0.00,,,0.00,VWS V13.01,2012-04-02 18:48:00,
2012-04-02 13:54:00,82.6,59.7,29.71,SSE,166,3.1,4.0,46,0.00,,,0.00,VWS V13.01,2012-04-02 18:54:00,
2012-04-02 13:59:00,82.4,60.2,29.71,North,4,5.4,6.3,47,0.00,,,0.00,VWS V13.01,2012-04-02 18:59:00,
2012-04-02 14:04:00,82.6,59.7,29.71,NE,53,0.0,4.9,46,0.00,,,0.00,VWS V13.01,2012-04-02 19:04:00,
2012-04-02 14:09:00,83.1,60.8,29.71,ENE,63,4.9,4.9,47,0.00,,,0.00,VWS V13.01,2012-04-02 19:09:00,
2012-04-02 14:15:00,83.7,60.7,29.71,ENE,64,5.8,5.8,46,0.00,,,0.00,VWS V13.01,2012-04-02 19:15:00,
2012-04-02 14:20:00,83.3,60.4,29.71,ENE,68,4.0,4.9,46,0.00,,,0.00,VWS V13.01,2012-04-02 19:20:00,
2012-04-02 14:25:00,83.3,60.4,29.71,NE,46,5.8,5.8,46,0.00,,,0.00,VWS V13.01,2012-04-02 19:25:00,
2012-04-02 14:30:00,83.7,60.7,29.71,ESE,121,4.9,5.8,46,0.00,,,0.00,VWS V13.01,2012-04-02 19:30:00,
2012-04-02 14:35:00,83.7,60.7,29.71,ENE,62,7.6,7.6,46,0.00,,,0.00,VWS V13.01,2012-04-02 19:35:00,
2012-04-02 14:40:00,83.5,60.5,29.71,East,97,5.8,5.8,46,0.00,,,0.00,VWS V13.01,2012-04-02 19:40:00,
2012-04-02 14:45:00,83.3,60.4,29.71,SSW,197,4.0,4.5,46,0.00,,,0.00,VWS V13.01,2012-04-02 19:45:00,
2012-04-02 14:50:00,83.8,60.9,29.71,North,7,3.6,4.5,46,0.00,,,0.00,VWS V13.01,2012-04-02 19:50:00,
2012-04-02 14:55:00,84.2,60.6,29.71,SE,126,5.8,6.3,45,0.00,,,0.00,VWS V13.01,2012-04-02 19:55:00,
2012-04-02 15:00:00,84.0,61.0,29.68,East,79,4.0,4.0,46,0.00,,,0.00,VWS V13.01,2012-04-02 20:00:00,
2012-04-02 15:05:00,84.6,60.9,29.68,ENE,70,3.6,3.6,45,0.00,,,0.00,VWS V13.01,2012-04-02 20:05:00,
2012-04-02 15:10:00,84.6,60.3,29.68,ESE,109,5.8,8.3,44,0.00,,,0.00,VWS V13.01,2012-04-02 20:10:00,
2012-04-02 15:15:00,83.8,59.6,29.68,East,86,4.0,6.3,44,0.00,,,0.00,VWS V13.01,2012-04-02 20:15:00,
2012-04-02 15:20:00,84.4,60.7,29.68,NE,50,4.0,4.0,45,0.00,,,0.00,VWS V13.01,2012-04-02 20:20:00,
2012-04-02 15:25:00,84.4,60.7,29.68,ESE,122,5.8,8.3,45,0.00,,,0.00,VWS V13.01,2012-04-02 20:25:00,
2012-04-02 15:30:00,84.2,60.0,29.68,South,175,3.1,4.9,44,0.00,,,0.00,VWS V13.01,2012-04-02 20:30:00,
2012-04-02 15:35:00,84.2,60.0,29.68,ESE,113,6.3,8.7,44,0.00,,,0.00,VWS V13.01,2012-04-02 20:35:00,
2012-04-02 15:36:00,84.2,60.6,29.68,East,100,5.4,8.7,45,0.00,,,0.00,VWS V13.01,2012-04-02 20:36:00,
2012-04-02 15:41:00,83.8,60.2,29.68,NE,40,5.8,7.6,45,0.00,,,0.00,VWS V13.01,2012-04-02 20:41:00,
2012-04-02 15:46:00,84.2,60.6,29.68,ESE,120,5.4,5.4,45,0.00,,,0.00,VWS V13.01,2012-04-02 20:46:00,
2012-04-02 15:51:00,84.7,61.1,29.68,NE,43,3.1,3.6,45,0.00,,,0.00,VWS V13.01,2012-04-02 20:51:00,
2012-04-02 15:56:00,85.1,61.4,29.68,ENE,63,5.8,5.8,45,0.00,,,0.00,VWS V13.01,2012-04-02 20:56:00,
2012-04-02 16:01:00,84.9,61.2,29.68,ESE,115,4.0,5.8,45,0.00,,,0.00,VWS V13.01,2012-04-02 21:01:00,
2012-04-02 16:06:00,84.6,59.6,29.68,NE,47,5.4,5.4,43,0.00,,,0.00,VWS V13.01,2012-04-02 21:06:00,
2012-04-02 16:11:00,84.9,60.6,29.68,ESE,115,7.2,7.2,44,0.00,,,0.00,VWS V13.01,2012-04-02 21:11:00,
2012-04-02 16:16:00,85.1,60.1,29.68,ENE,71,6.3,6.7,43,0.00,,,0.00,VWS V13.01,2012-04-02 21:16:00,
2012-04-02 16:21:00,84.9,60.6,29.68,East,79,5.8,5.8,44,0.00,,,0.00,VWS V13.01,2012-04-02 21:21:00,
2012-04-02 16:30:00,84.9,60.6,29.68,ESE,106,4.0,7.6,44,0.00,,,0.00,VWS V13.01,2012-04-02 21:30:00,
2012-04-02 16:35:00,84.9,60.6,29.68,SE,127,3.1,4.9,44,0.00,,,0.00,VWS V13.01,2012-04-02 21:35:00,
2012-04-02 16:36:00,84.9,60.6,29.68,SE,139,3.1,4.9,44,0.00,,,0.00,VWS V13.01,2012-04-02 21:36:00,
2012-04-02 16:41:00,84.7,60.4,29.68,East,82,6.3,6.3,44,0.00,,,0.00,VWS V13.01,2012-04-02 21:41:00,
2012-04-02 16:46:00,84.4,60.7,29.68,East,84,7.6,7.6,45,0.00,,,0.00,VWS V13.01,2012-04-02 21:46:00,
2012-04-02 16:51:00,84.6,60.9,29.68,NE,46,2.7,5.8,45,0.00,,,0.00,VWS V13.01,2012-04-02 21:51:00,
2012-04-02 16:56:00,84.7,61.1,29.68,East,101,2.7,3.1,45,0.00,,,0.00,VWS V13.01,2012-04-02 21:56:00,
2012-04-02 17:01:00,84.4,60.7,29.68,East,91,6.7,8.3,45,0.00,,,0.00,VWS V13.01,2012-04-02 22:01:00,
2012-04-02 17:06:00,83.7,60.1,29.68,ENE,73,5.8,5.8,45,0.00,,,0.00,VWS V13.01,2012-04-02 22:06:00,
2012-04-02 17:11:00,83.1,59.6,29.68,East,86,3.1,7.6,45,0.00,,,0.00,VWS V13.01,2012-04-02 22:11:00,
2012-04-02 17:16:00,82.8,59.9,29.68,SE,130,5.4,8.3,46,0.00,,,0.00,VWS V13.01,2012-04-02 22:16:00,
2012-04-02 17:21:00,82.4,59.6,29.68,ENE,63,3.1,5.4,46,0.00,,,0.00,VWS V13.01,2012-04-02 22:21:00,
2012-04-02 17:26:00,82.2,60.0,29.68,NNE,33,5.8,5.8,47,0.00,,,0.00,VWS V13.01,2012-04-02 22:26:00,
2012-04-02 17:31:00,82.2,60.0,29.68,East,80,5.8,5.8,47,0.00,,,0.00,VWS V13.01,2012-04-02 22:31:00,
2012-04-02 17:36:00,82.0,59.8,29.68,NE,45,4.0,4.0,47,0.00,,,0.00,VWS V13.01,2012-04-02 22:36:00,
2012-04-02 17:42:00,81.9,59.7,29.68,ENE,75,4.0,4.0,47,0.00,,,0.00,VWS V13.01,2012-04-02 22:42:00,
2012-04-02 17:47:00,81.5,59.3,29.68,NE,55,2.7,5.4,47,0.00,,,0.00,VWS V13.01,2012-04-02 22:47:00,
2012-04-02 17:52:00,81.3,59.2,29.68,East,99,5.8,5.8,47,0.00,,,0.00,VWS V13.01,2012-04-02 22:52:00,
2012-04-02 17:57:00,81.0,59.4,29.68,NE,37,4.0,4.0,48,0.00,,,0.00,VWS V13.01,2012-04-02 22:57:00,
2012-04-02 18:02:00,81.0,60.0,29.68,East,79,2.7,4.9,49,0.00,,,0.00,VWS V13.01,2012-04-02 23:02:00,
2012-04-02 18:07:00,80.8,59.9,29.68,East,93,5.4,6.3,49,0.00,,,0.00,VWS V13.01,2012-04-02 23:07:00,
2012-04-02 18:12:00,80.6,59.7,29.68,East,80,6.3,6.3,49,0.00,,,0.00,VWS V13.01,2012-04-02 23:12:00,
2012-04-02 18:17:00,80.2,60.5,29.71,ESE,113,5.8,5.8,51,0.00,,,0.00,VWS V13.01,2012-04-02 23:17:00,
2012-04-02 18:22:00,80.1,60.3,29.71,ENE,77,4.0,5.8,51,0.00,,,0.00,VWS V13.01,2012-04-02 23:22:00,
2012-04-02 18:27:00,79.9,60.2,29.71,SE,134,5.8,6.7,51,0.00,,,0.00,VWS V13.01,2012-04-02 23:27:00,
2012-04-02 18:32:00,79.9,60.2,29.71,South,175,5.8,5.8,51,0.00,,,0.00,VWS V13.01,2012-04-02 23:32:00,
2012-04-02 18:38:00,79.7,59.4,29.71,ESE,107,4.0,5.8,50,0.00,,,0.00,VWS V13.01,2012-04-02 23:38:00,
2012-04-02 18:43:00,79.3,59.1,29.71,East,85,5.8,5.8,50,0.00,,,0.00,VWS V13.01,2012-04-02 23:43:00,
2012-04-02 18:48:00,79.2,58.9,29.71,SSE,160,4.9,5.8,50,0.00,,,0.00,VWS V13.01,2012-04-02 23:48:00,
2012-04-02 18:53:00,79.0,59.3,29.71,ESE,122,5.4,5.4,51,0.00,,,0.00,VWS V13.01,2012-04-02 23:53:00,
2012-04-02 18:58:00,78.8,59.2,29.71,ESE,109,3.6,6.3,51,0.00,,,0.00,VWS V13.01,2012-04-02 23:58:00,
2012-04-02 19:03:00,78.6,59.5,29.71,ESE,114,5.4,6.3,52,0.00,,,0.00,VWS V13.01,2012-04-03 00:03:00,
2012-04-02 19:08:00,78.4,59.4,29.71,ESE,123,4.0,5.4,52,0.00,,,0.00,VWS V13.01,2012-04-03 00:08:00,
2012-04-02 19:13:00,78.3,59.7,29.71,SE,133,4.9,5.4,53,0.00,,,0.00,VWS V13.01,2012-04-03 00:13:00,
2012-04-02 19:18:00,78.3,60.3,29.71,SE,135,4.0,5.8,54,0.00,,,0.00,VWS V13.01,2012-04-03 00:18:00,
2012-04-02 19:23:00,77.5,58.5,29.71,SSE,155,10.5,19.7,52,0.00,,,0.00,VWS V13.01,2012-04-03 00:23:00,
2012-04-02 19:28:00,75.9,57.0,29.71,SE,135,10.1,14.5,52,0.00,,,0.00,VWS V13.01,2012-04-03 00:28:00,
2012-04-02 19:33:00,72.7,58.0,29.74,SSE,165,10.1,10.1,60,0.00,,,0.00,VWS V13.01,2012-04-03 00:33:00,
2012-04-02 19:38:00,70.5,58.2,29.74,WSW,249,3.6,6.3,65,0.00,,,0.00,VWS V13.01,2012-04-03 00:38:00,
2012-04-02 19:39:00,70.3,58.5,29.74,SE,139,4.0,6.3,66,0.00,,,0.00,VWS V13.01,2012-04-03 00:39:00,
2012-04-02 19:44:00,69.3,58.7,29.74,SE,143,4.0,5.8,69,0.00,,,0.00,VWS V13.01,2012-04-03 00:44:00,
2012-04-02 19:49:00,68.9,58.7,29.74,South,170,2.7,2.7,70,0.00,,,0.00,VWS V13.01,2012-04-03 00:49:00,
2012-04-02 19:54:00,68.7,59.3,29.74,SW,214,0.0,0.0,72,0.00,,,0.00,VWS V13.01,2012-04-03 00:54:00,
2012-04-02 19:59:00,68.5,59.9,29.74,ENE,70,0.0,0.0,74,0.00,,,0.00,VWS V13.01,2012-04-03 00:59:00,
2012-04-02 20:04:00,68.4,60.1,29.77,ENE,71,2.2,3.1,75,0.00,,,0.00,VWS V13.01,2012-04-03 01:04:00,
2012-04-02 20:09:00,68.2,60.3,29.77,East,88,0.0,3.1,76,0.00,,,0.00,VWS V13.01,2012-04-03 01:09:00,
2012-04-02 20:14:00,68.0,60.9,29.77,East,80,3.1,3.1,78,0.00,,,0.00,VWS V13.01,2012-04-03 01:14:00,
2012-04-02 20:19:00,68.0,60.9,29.77,NNE,19,2.7,3.6,78,0.00,,,0.00,VWS V13.01,2012-04-03 01:19:00,
2012-04-02 20:24:00,67.8,61.1,29.77,NNW,337,0.0,0.0,79,0.00,,,0.00,VWS V13.01,2012-04-03 01:24:00,
2012-04-02 20:29:00,67.8,62.1,29.77,NW,316,0.0,0.0,82,0.00,,,0.00,VWS V13.01,2012-04-03 01:29:00,
2012-04-02 20:34:00,67.6,61.3,29.77,NNW,336,0.0,0.0,80,0.00,,,0.00,VWS V13.01,2012-04-03 01:34:00,
2012-04-02 20:39:00,67.5,61.1,29.77,North,352,0.0,0.0,80,0.00,,,0.00,VWS V13.01,2012-04-03 01:39:00,
2012-04-02 20:44:00,67.6,61.3,29.77,NNW,339,2.2,3.1,80,0.00,,,0.00,VWS V13.01,2012-04-03 01:44:00,
2012-04-02 20:49:00,67.6,61.3,29.77,NNE,13,2.7,3.1,80,0.00,,,0.00,VWS V13.01,2012-04-03 01:49:00,
2012-04-02 20:54:00,67.6,60.9,29.77,NNE,28,3.1,3.1,79,0.00,,,0.00,VWS V13.01,2012-04-03 01:54:00,
2012-04-02 20:59:00,67.6,60.5,29.77,NE,48,2.2,2.7,78,0.00,,,0.00,VWS V13.01,2012-04-03 01:59:00,
2012-04-02 21:04:00,67.6,59.8,29.77,NE,34,3.1,4.9,76,0.00,,,0.00,VWS V13.01,2012-04-03 02:04:00,
2012-04-02 21:09:00,67.8,58.9,29.77,ENE,58,2.2,3.6,73,0.00,,,0.00,VWS V13.01,2012-04-03 02:09:00,
2012-04-02 21:14:00,67.8,58.9,29.77,NNE,27,0.0,0.0,73,0.00,,,0.00,VWS V13.01,2012-04-03 02:14:00,
2012-04-02 21:19:00,67.8,58.5,29.77,NE,34,3.1,3.1,72,0.00,,,0.00,VWS V13.01,2012-04-03 02:19:00,
2012-04-02 21:24:00,67.6,58.3,29.77,NNE,21,2.7,3.1,72,0.00,,,0.00,VWS V13.01,2012-04-03 02:24:00,
2012-04-02 21:29:00,67.6,58.3,29.77,NNE,22,4.0,4.0,72,0.00,,,0.00,VWS V13.01,2012-04-03 02:29:00,
2012-04-02 21:34:00,67.6,58.3,29.77,NE,43,3.6,3.6,72,0.00,,,0.00,VWS V13.01,2012-04-03 02:34:00,
2012-04-02 21:39:00,67.5,58.5,29.77,NE,44,0.0,0.0,73,0.00,,,0.00,VWS V13.01,2012-04-03 02:39:00,
2012-04-02 21:45:00,67.3,58.0,29.77,NE,53,3.1,4.0,72,0.00,,,0.00,VWS V13.01,2012-04-03 02:45:00,
2012-04-02 21:46:00,67.3,58.3,29.77,NNE,33,3.6,3.6,73,0.00,,,0.00,VWS V13.01,2012-04-03 02:46:00,
2012-04-02 21:51:00,66.9,58.0,29.77,NNE,20,3.1,3.1,73,0.00,,,0.00,VWS V13.01,2012-04-03 02:51:00,
2012-04-02 21:56:00,66.9,58.4,29.77,North,350,0.0,2.7,74,0.00,,,0.00,VWS V13.01,2012-04-03 02:56:00,
2012-04-02 22:01:00,66.6,57.7,29.77,NE,52,3.1,5.4,73,0.00,,,0.00,VWS V13.01,2012-04-03 03:01:00,
2012-04-02 22:06:00,66.6,57.7,29.77,NNE,26,0.0,0.0,73,0.00,,,0.00,VWS V13.01,2012-04-03 03:06:00,
2012-04-02 22:11:00,66.4,57.5,29.77,NE,50,2.7,3.1,73,0.00,,,0.00,VWS V13.01,2012-04-03 03:11:00,
2012-04-02 22:16:00,66.2,57.7,29.77,NE,39,3.1,4.0,74,0.00,,,0.00,VWS V13.01,2012-04-03 03:16:00,
2012-04-02 22:21:00,65.8,57.7,29.77,North,358,2.7,4.0,75,0.00,,,0.00,VWS V13.01,2012-04-03 03:21:00,
2012-04-02 22:26:00,65.8,57.3,29.77,NE,38,0.0,3.6,74,0.00,,,0.00,VWS V13.01,2012-04-03 03:26:00,
2012-04-02 22:31:00,66.0,57.5,29.77,North,359,3.6,3.6,74,0.00,,,0.00,VWS V13.01,2012-04-03 03:31:00,
2012-04-02 22:36:00,66.0,57.1,29.77,NE,54,0.0,0.0,73,0.00,,,0.00,VWS V13.01,2012-04-03 03:36:00,
2012-04-02 22:41:00,65.8,57.0,29.77,NE,54,0.0,0.0,73,0.00,,,0.00,VWS V13.01,2012-04-03 03:41:00,
2012-04-02 22:46:00,65.7,57.2,29.77,NE,45,0.0,0.0,74,0.00,,,0.00,VWS V13.01,2012-04-03 03:46:00,
2012-04-02 22:51:00,65.5,57.0,29.77,NE,44,0.0,0.0,74,0.00,,,0.00,VWS V13.01,2012-04-03 03:51:00,
2012-04-02 22:56:00,65.3,56.8,29.77,NE,45,0.0,0.0,74,0.00,,,0.00,VWS V13.01,2012-04-03 03:56:00,
2012-04-02 23:00:00,65.1,56.6,29.77,NE,45,0.0,0.0,74,0.00,,,0.00,VWS V13.01,2012-04-03 04:00:00,
2012-04-02 23:02:00,65.1,56.6,29.77,NE,45,0.0,0.0,74,0.00,,,0.00,VWS V13.01,2012-04-03 04:02:00,
2012-04-02 23:07:00,64.8,57.0,29.77,NNE,17,3.1,3.1,76,0.00,,,0.00,VWS V13.01,2012-04-03 04:07:00,
2012-04-02 23:12:00,64.9,56.5,29.77,NE,44,0.0,0.0,74,0.00,,,0.00,VWS V13.01,2012-04-03 04:12:00,
2012-04-02 23:17:00,65.1,56.3,29.77,NE,43,3.6,3.6,73,0.00,,,0.00,VWS V13.01,2012-04-03 04:17:00,
2012-04-02 23:22:00,65.3,56.4,29.77,NE,41,3.6,4.9,73,0.00,,,0.00,VWS V13.01,2012-04-03 04:22:00,
2012-04-02 23:27:00,65.3,56.4,29.77,NE,50,0.0,0.0,73,0.00,,,0.00,VWS V13.01,2012-04-03 04:27:00,
2012-04-02 23:32:00,65.5,55.8,29.77,East,79,0.0,0.0,71,0.00,,,0.00,VWS V13.01,2012-04-03 04:32:00,
2012-04-02 23:37:00,65.5,55.8,29.77,ENE,68,0.0,0.0,71,0.00,,,0.00,VWS V13.01,2012-04-03 04:37:00,
2012-04-02 23:42:00,65.5,55.8,29.77,East,101,2.2,3.1,71,0.00,,,0.00,VWS V13.01,2012-04-03 04:42:00,
2012-04-02 23:47:00,65.7,55.6,29.77,East,95,7.6,7.6,70,0.00,,,0.00,VWS V13.01,2012-04-03 04:47:00,
2012-04-02 23:52:00,66.2,55.7,29.77,ESE,111,2.2,2.2,69,0.00,,,0.00,VWS V13.01,2012-04-03 04:52:00,
2012-04-02 23:57:00,66.4,55.9,29.77,ENE,71,0.0,0.0,69,0.00,,,0.00,VWS V13.01,2012-04-03 04:57:00,